Precipitable_Water
0.30 0.37 0.42 0.49 0.51 0.51 0.52 0.51 0.51 0.49 0.52 0.50 0.47 0.52 0.58 0.59 0.52 0.47 0.64 0.68 0.60 0.71 0.82 0.96 1.03 1.16 1.16 1.21 1.28 1.31 1.35 1.39 1.40 1.42 1.42 1.44 1.47 1.50 1.52 1.56 1.61 1.63 1.64 1.66 1.68 1.68 1.69 1.71 1.69 1.71 1.73 1.77 1.81 1.85 1.90 1.93 1.92 1.87 1.95 1.96 1.99 1.96 1.83 1.73 1.67 1.68 1.70 1.70 1.68 1.61 1.56 1.52 1.50 1.47 1.49 1.53 1.57 1.62 1.65 1.66 1.69 1.72 1.74 1.75 1.74 1.75 1.79
0.32 0.38 0.42 0.47 0.47 0.48 0.47 0.48 0.50 0.52 0.52 0.50 0.53 0.57 0.64 0.62 0.60 0.68 0.72 0.71 0.67 0.79 0.89 1.00 1.08 1.18 1.27 1.29 1.33 1.33 1.30 1.31 1.34 1.36 1.37 1.41 1.47 1.50 1.51 1.52 1.55 1.59 1.62 1.64 1.67 1.71 1.73 1.72 1.72 1.71 1.71 1.72 1.75 1.78 1.82 1.89 1.92 1.98 1.97 1.92 1.94 2.01 2.00 1.95 1.86 1.81 1.77 1.75 1.73 1.65 1.57 1.52 1.49 1.48 1.48 1.50 1.53 1.55 1.58 1.61 1.63 1.65 1.68 1.71 1.72 1.72 1.73
0.32 0.39 0.44 0.47 0.49 0.49 0.45 0.51 0.51 0.53 0.54 0.54 0.58 0.61 0.65 0.68 0.66 0.73 0.75 0.73 0.71 0.89 0.99 1.07 1.13 1.24 1.36 1.29 1.23 1.22 1.24 1.28 1.30 1.32 1.35 1.39 1.42 1.44 1.46 1.49 1.52 1.57 1.60 1.63 1.67 1.69 1.70 1.69 1.72 1.73 1.74 1.76 1.80 1.82 1.85 1.87 1.91 1.99 2.03 1.97 1.96 1.96 2.01 2.07 2.09 2.03 1.96 1.88 1.83 1.71 1.62 1.56 1.52 1.49 1.48 1.50 1.52 1.55 1.56 1.57 1.57 1.59 1.61 1.62 1.64 1.68 1.68
0.30 0.38 0.39 0.44 0.48 0.47 0.46 0.46 0.49 0.49 0.48 0.46 0.53 0.52 0.63 0.61 0.58 0.66 0.70 0.66 0.67 0.88 1.04 1.09 1.10 1.19 1.23 1.16 1.15 1.16 1.19 1.23 1.26 1.27 1.32 1.35 1.35 1.37 1.40 1.43 1.46 1.47 1.50 1.53 1.58 1.63 1.70 1.73 1.75 1.75 1.76 1.78 1.80 1.82 1.89 1.92 1.96 2.03 2.04 2.03 1.99 1.94 1.96 2.02 2.10 2.14 2.09 2.02 1.93 1.83 1.72 1.61 1.56 1.54 1.51 1.50 1.50 1.54 1.56 1.54 1.55 1.56 1.54 1.56 1.61 1.64 1.65
0.28 0.37 0.39 0.39 0.40 0.38 0.32 0.35 0.44 0.51 0.54 0.55 0.58 0.62 0.66 0.67 0.69 0.61 0.59 0.67 0.88 0.96 1.06 1.04 1.03 1.15 1.15 1.14 1.14 1.13 1.18 1.22 1.24 1.25 1.28 1.31 1.31 1.32 1.36 1.37 1.38 1.40 1.43 1.49 1.54 1.57 1.62 1.66 1.70 1.75 1.79 1.78 1.79 1.85 1.90 1.97 2.04 2.03 2.04 2.06 2.07 2.07 2.03 2.06 2.08 2.14 2.11 2.04 2.05 1.97 1.83 1.73 1.69 1.64 1.58 1.54 1.52 1.52 1.51 1.55 1.56 1.51 1.52 1.55 1.58 1.63 1.62
0.28 0.34 0.37 0.40 0.34 0.23 0.25 0.49 0.55 0.57 0.54 0.57 0.52 0.55 0.62 0.71 0.73 0.69 0.78 0.86 0.98 1.01 1.01 1.02 1.05 1.08 1.11 1.15 1.22 1.28 1.23 1.21 1.22 1.26 1.29 1.30 1.30 1.31 1.33 1.35 1.35 1.37 1.41 1.44 1.50 1.55 1.60 1.66 1.69 1.74 1.78 1.79 1.84 1.92 1.96 2.00 2.01 2.02 2.01 2.02 2.05 2.08 2.13 2.11 2.11 2.11 2.06 1.97 1.98 2.06 2.03 1.91 1.83 1.75 1.68 1.62 1.61 1.60 1.60 1.60 1.56 1.53 1.52 1.54 1.59 1.62 1.63
0.27 0.34 0.37 0.30 0.22 0.23 0.42 0.55 0.63 0.67 0.65 0.65 0.60 0.61 0.65 0.72 0.78 0.80 0.79 0.85 0.92 1.01 1.06 1.12 1.10 1.15 1.20 1.24 1.24 1.25 1.30 1.29 1.25 1.23 1.26 1.28 1.30 1.31 1.32 1.33 1.36 1.39 1.40 1.42 1.46 1.50 1.55 1.62 1.69 1.73 1.75 1.79 1.84 1.88 1.94 1.94 1.99 2.01 2.02 2.01 2.01 2.00 2.01 2.08 2.15 2.13 2.15 2.08 2.04 2.08 2.09 2.03 1.98 1.90 1.84 1.78 1.73 1.69 1.66 1.63 1.60 1.59 1.59 1.59 1.66 1.68 1.67
0.33 0.30 0.30 0.18 0.21 0.37 0.44 0.50 0.60 0.71 0.70 0.69 0.62 0.56 0.63 0.70 0.75 0.80 0.77 0.84 0.94 1.03 1.08 1.11 1.15 1.17 1.22 1.23 1.23 1.24 1.28 1.31 1.28 1.25 1.25 1.28 1.29 1.27 1.31 1.32 1.33 1.36 1.39 1.42 1.44 1.47 1.57 1.61 1.64 1.68 1.69 1.76 1.76 1.78 1.88 1.89 1.93 1.98 1.99 2.00 2.02 2.04 2.02 2.05 2.09 2.15 2.11 2.08 2.12 2.10 2.08 2.06 2.03 1.99 1.94 1.92 1.87 1.86 1.81 1.77 1.75 1.71 1.69 1.71 1.72 1.75 1.76
0.25 0.28 0.26 0.23 0.33 0.30 0.35 0.40 0.50 0.60 0.56 0.59 0.55 0.46 0.55 0.67 0.75 0.78 0.81 0.86 0.94 1.01 1.08 1.12 1.15 1.19 1.19 1.10 1.11 1.23 1.26 1.29 1.33 1.31 1.30 1.32 1.30 1.31 1.33 1.36 1.36 1.40 1.43 1.43 1.47 1.51 1.54 1.58 1.60 1.63 1.70 1.75 1.76 1.79 1.82 1.87 1.91 1.94 1.97 1.98 2.00 2.03 2.02 2.03 2.05 2.10 2.10 2.04 2.08 2.03 2.04 2.01 1.98 2.02 2.06 2.02 1.95 1.97 1.89 1.90 1.88 1.81 1.77 1.79 1.82 1.83 1.84
0.34 0.27 0.24 0.24 0.23 0.19 0.29 0.44 0.59 0.73 0.75 0.70 0.70 0.59 0.53 0.69 0.77 0.85 0.88 0.86 0.95 1.00 1.04 1.06 1.08 1.13 1.06 0.91 0.99 1.19 1.28 1.34 1.34 1.36 1.33 1.31 1.30 1.30 1.31 1.35 1.34 1.35 1.38 1.42 1.47 1.50 1.52 1.56 1.60 1.64 1.68 1.71 1.75 1.77 1.78 1.83 1.86 1.90 1.97 1.95 1.99 2.03 2.04 2.06 2.08 2.10 2.08 2.01 2.01 2.03 2.03 1.97 1.98 1.99 2.03 2.06 2.09 2.06 1.94 1.92 1.95 1.99 1.95 1.91 1.92 1.94 1.93
0.30 0.27 0.22 0.21 0.18 0.24 0.38 0.46 0.58 0.69 0.74 0.74 0.75 0.55 0.45 0.67 0.80 0.86 0.90 0.89 0.96 1.00 1.00 1.02 1.06 1.00 0.92 0.89 1.01 1.18 1.31 1.33 1.33 1.27 1.24 1.23 1.23 1.23 1.24 1.22 1.20 1.24 1.31 1.36 1.41 1.45 1.48 1.49 1.57 1.63 1.65 1.65 1.67 1.69 1.77 1.83 1.88 1.91 1.95 2.00 2.02 2.02 2.04 2.08 2.11 2.14 2.14 2.10 2.08 2.04 1.96 1.93 1.99 2.00 2.01 2.02 2.07 2.19 2.11 2.07 2.06 2.09 2.08 2.02 1.99 2.00 2.00
0.28 0.27 0.22 0.20 0.26 0.27 0.43 0.51 0.58 0.68 0.76 0.75 0.63 0.38 0.42 0.68 0.84 0.90 0.94 0.94 0.97 1.02 1.04 1.04 1.00 0.93 0.86 0.93 1.07 1.21 1.28 1.31 1.30 1.24 1.18 1.17 1.16 1.13 1.12 1.17 1.23 1.28 1.32 1.34 1.34 1.36 1.38 1.45 1.55 1.59 1.62 1.63 1.65 1.71 1.79 1.84 1.89 1.92 1.98 2.01 2.02 2.05 2.07 2.08 2.08 2.07 2.04 2.04 2.01 1.95 1.91 1.94 1.99 2.02 2.09 2.11 2.10 2.08 2.10 2.09 2.13 2.13 2.13 2.00 1.93 1.90 1.93
0.27 0.26 0.26 0.27 0.29 0.39 0.47 0.53 0.64 0.70 0.77 0.67 0.43 0.36 0.53 0.76 0.84 0.90 0.97 1.00 1.03 1.06 1.04 1.04 0.94 1.03 1.11 1.15 1.19 1.23 1.26 1.17 1.12 1.15 1.19 1.18 1.15 1.05 1.03 1.07 1.19 1.25 1.30 1.33 1.33 1.36 1.39 1.44 1.50 1.53 1.59 1.59 1.59 1.71 1.87 1.87 1.85 1.84 1.92 1.98 1.96 1.99 2.03 2.02 2.02 2.01 2.04 2.01 1.95 1.95 1.98 2.01 2.06 2.06 2.07 2.05 2.06 2.04 2.02 2.03 2.03 2.05 2.04 1.96 1.90 1.89 1.91
0.24 0.28 0.24 0.25 0.29 0.40 0.52 0.60 0.66 0.74 0.59 0.39 0.38 0.61 0.79 0.85 0.87 0.92 0.94 0.98 1.07 1.07 1.05 1.05 1.06 1.12 1.19 1.19 1.19 1.20 1.18 1.10 1.07 1.05 1.07 1.11 1.09 1.06 1.05 1.02 1.04 1.12 1.19 1.21 1.24 1.28 1.33 1.37 1.41 1.47 1.51 1.51 1.54 1.58 1.57 1.65 1.70 1.80 1.87 1.89 1.90 1.92 1.85 1.89 1.92 1.89 1.90 1.97 2.02 2.00 1.98 1.97 1.96 1.97 2.01 2.00 1.97 1.94 1.95 1.92 1.89 1.93 1.96 1.94 1.91 1.88 1.89
0.31 0.30 0.25 0.24 0.19 0.40 0.60 0.65 0.63 0.71 0.47 0.53 0.69 0.78 0.85 0.91 0.92 0.92 0.91 0.97 1.02 1.07 1.04 1.09 1.11 1.13 1.14 1.14 1.15 1.15 1.13 1.07 1.00 0.98 1.00 1.03 1.03 1.02 1.00 0.98 0.99 0.99 1.00 1.00 1.01 1.03 1.09 1.17 1.25 1.34 1.40 1.41 1.46 1.51 1.49 1.52 1.64 1.71 1.77 1.83 1.82 1.77 1.78 1.80 1.77 1.74 1.77 1.80 1.82 1.86 1.87 1.89 1.86 1.84 1.92 1.90 1.89 1.90 1.90 1.90 1.87 1.84 1.84 1.85 1.83 1.81 1.82
0.25 0.26 0.22 0.24 0.35 0.54 0.67 0.60 0.48 0.65 0.66 0.78 0.82 0.82 0.79 0.93 0.95 0.91 0.91 1.01 1.09 1.14 1.11 1.08 1.09 1.10 1.09 1.09 1.09 1.08 1.05 0.99 0.95 0.96 0.98 0.99 0.99 1.00 0.98 0.97 0.95 0.94 0.94 0.96 0.97 1.01 1.06 1.12 1.16 1.16 1.17 1.21 1.27 1.32 1.36 1.42 1.37 1.37 1.45 1.56 1.64 1.64 1.65 1.67 1.68 1.73 1.76 1.75 1.75 1.78 1.80 1.81 1.84 1.83 1.84 1.89 1.93 1.92 1.90 1.83 1.80 1.77 1.78 1.80 1.80 1.79 1.78
0.31 0.29 0.34 0.47 0.58 0.64 0.72 0.71 0.68 0.74 0.84 0.87 0.89 0.87 0.88 0.88 0.93 1.03 1.01 1.01 1.07 1.09 1.10 1.08 1.08 1.05 1.07 1.06 1.05 0.98 0.92 0.88 0.85 0.84 0.86 0.88 0.89 0.91 0.91 0.90 0.90 0.89 0.89 0.91 0.96 0.99 1.04 1.07 1.11 1.14 1.16 1.14 1.16 1.19 1.31 1.41 1.42 1.39 1.39 1.42 1.50 1.56 1.57 1.51 1.46 1.48 1.50 1.52 1.56 1.60 1.62 1.61 1.58 1.66 1.71 1.71 1.70 1.76 1.76 1.73 1.70 1.67 1.69 1.72 1.72 1.73 1.72
0.47 0.52 0.50 0.60 0.63 0.69 0.75 0.80 0.84 0.82 0.85 0.92 0.92 0.89 0.86 0.94 1.01 1.05 1.02 1.06 1.06 1.07 1.07 1.03 1.06 1.05 1.05 1.04 1.00 0.91 0.86 0.83 0.83 0.85 0.86 0.88 0.91 0.92 0.91 0.89 0.87 0.87 0.88 0.90 0.91 0.92 0.97 1.03 1.07 1.10 1.10 1.10 1.10 1.18 1.27 1.33 1.39 1.40 1.40 1.43 1.43 1.37 1.38 1.44 1.44 1.43 1.41 1.40 1.39 1.40 1.44 1.49 1.46 1.44 1.50 1.54 1.53 1.54 1.61 1.64 1.65 1.63 1.63 1.66 1.66 1.65 1.65
0.42 0.37 0.56 0.54 0.58 0.68 0.76 0.81 0.91 0.97 0.97 0.95 0.95 0.93 0.95 0.97 1.02 1.05 1.10 1.12 1.09 1.07 1.07 1.03 1.04 1.07 1.12 1.06 0.98 0.91 0.88 0.88 0.88 0.88 0.87 0.89 0.90 0.90 0.89 0.93 0.94 0.92 0.91 0.89 0.88 0.87 0.86 0.92 0.97 1.01 1.04 1.07 1.10 1.13 1.14 1.21 1.28 1.31 1.32 1.33 1.34 1.37 1.39 1.39 1.39 1.38 1.33 1.31 1.30 1.30 1.30 1.35 1.40 1.44 1.41 1.38 1.39 1.41 1.45 1.52 1.54 1.53 1.57 1.58 1.54 1.57 1.59
0.40 0.39 0.50 0.55 0.61 0.69 0.78 0.82 0.84 0.88 0.93 0.95 0.98 1.00 1.02 1.03 1.07 1.09 1.10 1.13 1.10 1.13 1.07 1.07 1.06 1.08 1.12 1.08 1.02 0.97 0.95 0.94 0.95 0.94 0.94 0.93 0.91 0.92 0.94 0.96 0.98 0.97 0.96 0.92 0.91 0.89 0.88 0.91 0.92 0.94 0.96 0.98 1.03 1.07 1.10 1.13 1.17 1.20 1.21 1.22 1.22 1.24 1.27 1.29 1.29 1.30 1.29 1.26 1.19 1.17 1.20 1.26 1.31 1.33 1.35 1.36 1.29 1.26 1.26 1.29 1.32 1.31 1.32 1.32 1.33 1.34 1.34
0.48 0.53 0.53 0.54 0.58 0.63 0.70 0.80 0.86 0.91 0.94 0.93 0.96 1.01 1.02 1.05 1.04 1.07 1.11 1.13 1.11 1.10 1.07 1.10 1.06 1.05 1.11 1.12 1.07 1.03 1.01 0.99 0.98 0.97 0.97 0.98 0.99 1.01 1.00 1.01 1.01 0.99 0.98 0.96 0.95 0.94 0.94 0.97 0.96 0.95 0.98 1.02 1.04 1.05 1.08 1.11 1.14 1.12 1.12 1.16 1.20 1.20 1.21 1.20 1.16 1.18 1.16 1.14 1.12 1.11 1.13 1.16 1.17 1.19 1.21 1.22 1.23 1.23 1.26 1.29 1.24 1.17 1.10 1.11 1.10 1.10 1.11
0.41 0.40 0.46 0.52 0.37 0.38 0.54 0.68 0.80 0.86 0.94 0.94 0.94 1.00 1.00 1.04 1.04 1.06 1.05 1.07 1.12 1.12 1.13 1.09 1.04 1.05 1.11 1.13 1.10 1.06 1.05 1.03 1.04 1.04 1.04 1.05 1.04 1.05 1.07 1.08 1.08 1.06 1.05 1.03 1.00 0.99 0.99 1.03 1.02 1.01 1.01 1.01 1.02 1.04 1.06 1.09 1.12 1.08 1.09 1.11 1.12 1.14 1.16 1.17 1.17 1.14 1.11 1.11 1.11 1.09 1.08 1.06 1.04 1.06 1.12 1.14 1.14 1.12 1.11 1.14 1.12 1.09 1.03 0.93 0.90 0.89 0.86
0.40 0.48 0.55 0.56 0.50 0.47 0.56 0.67 0.81 0.89 0.94 0.94 0.91 0.93 0.96 1.03 1.06 1.07 1.04 1.02 1.05 1.07 1.11 1.16 1.10 1.08 1.10 1.09 1.08 1.04 1.02 1.03 1.05 1.06 1.05 1.02 1.02 1.04 1.08 1.08 1.09 1.10 1.10 1.11 1.08 1.03 1.03 1.05 1.04 1.04 1.04 1.06 1.06 1.06 1.05 1.05 1.04 1.04 1.06 1.05 1.07 1.11 1.13 1.12 1.12 1.11 1.09 1.09 1.11 1.11 1.10 1.08 1.03 0.97 0.95 0.98 0.99 0.98 0.96 0.94 0.93 0.94 0.94 0.93 0.91 0.89 0.87
0.52 0.55 0.59 0.60 0.54 0.49 0.55 0.72 0.82 0.87 0.93 0.92 0.90 0.94 0.99 1.00 1.00 1.02 1.01 1.01 0.99 1.02 1.08 1.11 1.10 1.05 1.06 1.07 1.05 1.00 1.02 1.03 1.03 1.02 1.03 1.04 1.04 1.04 1.05 1.04 1.03 1.04 1.05 1.07 1.08 1.08 1.10 1.10 1.09 1.09 1.08 1.10 1.12 1.12 1.11 1.08 1.07 1.05 1.04 1.02 1.02 1.06 1.10 1.09 1.08 1.07 1.08 1.08 1.07 1.07 1.07 1.07 1.03 0.98 0.92 0.88 0.90 0.95 0.97 0.96 0.96 0.94 0.92 0.89 0.88 0.86 0.84
0.51 0.60 0.63 0.63 0.61 0.62 0.70 0.77 0.82 0.86 0.90 0.91 0.87 0.89 0.93 0.96 0.98 1.01 0.97 0.99 1.04 1.03 1.02 1.03 1.05 1.07 1.04 1.05 1.02 0.99 0.96 0.97 0.99 0.99 1.00 1.00 1.00 0.98 0.96 0.96 0.94 0.94 0.95 0.97 1.00 1.02 1.03 1.02 1.01 1.02 1.00 1.02 1.06 1.08 1.10 1.10 1.09 1.06 1.05 1.05 1.03 1.04 1.06 1.06 1.05 1.05 1.06 1.06 1.05 1.04 1.02 1.00 0.96 0.93 0.89 0.87 0.85 0.87 0.94 0.97 0.95 0.92 0.90 0.89 0.89 0.89 0.89
0.61 0.61 0.63 0.63 0.66 0.67 0.74 0.75 0.76 0.80 0.84 0.88 0.86 0.88 0.93 0.97 0.97 0.97 0.95 0.95 0.94 0.97 0.97 0.95 0.94 0.98 1.00 0.97 0.94 0.95 0.92 0.92 0.94 0.93 0.93 0.93 0.94 0.93 0.92 0.92 0.93 0.95 0.94 0.92 0.91 0.91 0.90 0.88 0.87 0.88 0.88 0.90 0.94 0.96 0.97 0.99 0.99 0.98 0.97 0.96 0.98 0.99 1.00 1.01 1.02 1.02 1.03 1.03 1.04 1.04 1.03 1.02 0.99 0.96 0.93 0.91 0.88 0.86 0.84 0.85 0.87 0.89 0.89 0.87 0.86 0.87 0.87
0.65 0.64 0.58 0.57 0.58 0.64 0.72 0.66 0.66 0.79 0.82 0.87 0.86 0.85 0.89 0.92 0.94 0.95 0.96 0.96 0.95 0.95 0.93 0.93 0.93 0.93 0.94 0.95 0.95 0.96 0.93 0.96 0.95 0.93 0.92 0.90 0.89 0.89 0.90 0.91 0.91 0.90 0.89 0.88 0.87 0.86 0.84 0.85 0.83 0.82 0.83 0.86 0.89 0.90 0.89 0.88 0.88 0.86 0.86 0.87 0.87 0.88 0.87 0.87 0.88 0.88 0.89 0.91 0.92 0.95 0.96 0.97 0.98 0.96 0.95 0.96 0.95 0.92 0.90 0.86 0.83 0.82 0.83 0.86 0.89 0.89 0.88
0.65 0.65 0.59 0.47 0.51 0.56 0.65 0.70 0.75 0.80 0.85 0.87 0.86 0.84 0.88 0.90 0.89 0.87 0.86 0.88 0.90 0.93 0.95 0.95 0.94 0.91 0.89 0.93 0.93 0.91 0.92 0.89 0.84 0.84 0.82 0.80 0.80 0.80 0.80 0.79 0.78 0.76 0.74 0.73 0.73 0.75 0.74 0.73 0.72 0.71 0.71 0.76 0.79 0.80 0.79 0.76 0.75 0.74 0.75 0.77 0.77 0.78 0.80 0.79 0.78 0.79 0.79 0.80 0.81 0.83 0.84 0.86 0.87 0.88 0.88 0.89 0.89 0.88 0.89 0.90 0.89 0.88 0.88 0.90 0.91 0.94 0.95
0.64 0.65 0.64 0.64 0.66 0.71 0.74 0.75 0.75 0.76 0.78 0.84 0.86 0.85 0.85 0.82 0.82 0.82 0.82 0.84 0.85 0.86 0.84 0.88 0.91 0.89 0.86 0.87 0.86 0.81 0.78 0.75 0.71 0.68 0.68 0.69 0.69 0.69 0.68 0.66 0.63 0.59 0.55 0.54 0.55 0.57 0.58 0.59 0.60 0.60 0.64 0.70 0.72 0.73 0.73 0.72 0.69 0.69 0.68 0.69 0.69 0.69 0.70 0.71 0.70 0.70 0.69 0.71 0.72 0.74 0.76 0.78 0.80 0.81 0.84 0.84 0.86 0.86 0.85 0.84 0.83 0.84 0.85 0.86 0.87 0.89 0.95
0.66 0.68 0.67 0.67 0.70 0.72 0.70 0.69 0.70 0.72 0.73 0.77 0.76 0.76 0.78 0.75 0.74 0.75 0.77 0.79 0.81 0.77 0.80 0.82 0.81 0.79 0.79 0.74 0.72 0.67 0.64 0.62 0.61 0.60 0.59 0.56 0.54 0.52 0.49 0.47 0.46 0.45 0.44 0.43 0.43 0.46 0.46 0.47 0.48 0.48 0.53 0.59 0.62 0.65 0.66 0.67 0.67 0.68 0.68 0.68 0.68 0.67 0.67 0.68 0.70 0.70 0.68 0.67 0.67 0.67 0.70 0.70 0.68 0.67 0.72 0.77 0.80 0.81 0.80 0.79 0.80 0.79 0.79 0.81 0.81 0.80 0.80
0.67 0.68 0.68 0.68 0.67 0.66 0.65 0.69 0.72 0.73 0.74 0.76 0.75 0.73 0.75 0.75 0.72 0.72 0.74 0.76 0.77 0.74 0.75 0.72 0.66 0.60 0.56 0.51 0.50 0.46 0.44 0.42 0.41 0.40 0.40 0.41 0.40 0.40 0.38 0.38 0.33 0.31 0.34 0.38 0.43 0.45 0.45 0.46 0.47 0.47 0.52 0.55 0.55 0.55 0.56 0.57 0.60 0.63 0.65 0.67 0.68 0.66 0.66 0.66 0.67 0.68 0.68 0.67 0.69 0.68 0.68 0.67 0.65 0.62 0.63 0.67 0.73 0.75 0.75 0.75 0.74 0.73 0.74 0.75 0.75 0.74 0.76
0.64 0.65 0.65 0.65 0.64 0.62 0.64 0.68 0.70 0.72 0.73 0.76 0.73 0.70 0.71 0.69 0.67 0.68 0.71 0.70 0.71 0.69 0.66 0.61 0.55 0.53 0.54 0.52 0.49 0.45 0.43 0.41 0.40 0.38 0.39 0.39 0.39 0.40 0.40 0.40 0.41 0.42 0.43 0.45 0.46 0.47 0.48 0.47 0.46 0.49 0.53 0.53 0.53 0.52 0.51 0.51 0.52 0.53 0.57 0.60 0.63 0.65 0.67 0.67 0.69 0.71 0.70 0.68 0.68 0.68 0.67 0.65 0.63 0.62 0.60 0.65 0.69 0.71 0.73 0.73 0.73 0.73 0.73 0.72 0.71 0.72 0.75
0.57 0.57 0.58 0.59 0.60 0.61 0.62 0.67 0.66 0.69 0.73 0.72 0.72 0.74 0.74 0.73 0.72 0.70 0.70 0.69 0.67 0.65 0.61 0.58 0.58 0.58 0.56 0.51 0.47 0.45 0.43 0.42 0.41 0.40 0.39 0.39 0.40 0.40 0.40 0.40 0.40 0.41 0.42 0.46 0.47 0.48 0.48 0.45 0.46 0.50 0.50 0.49 0.48 0.47 0.46 0.46 0.47 0.48 0.51 0.53 0.56 0.60 0.64 0.66 0.67 0.69 0.72 0.72 0.72 0.71 0.68 0.66 0.66 0.65 0.62 0.63 0.66 0.69 0.71 0.71 0.72 0.71 0.71 0.71 0.70 0.73 0.74
0.55 0.53 0.54 0.56 0.53 0.52 0.55 0.63 0.70 0.71 0.74 0.77 0.78 0.76 0.75 0.74 0.72 0.70 0.68 0.67 0.64 0.62 0.60 0.60 0.60 0.58 0.55 0.50 0.47 0.45 0.44 0.42 0.39 0.39 0.40 0.40 0.41 0.42 0.43 0.43 0.43 0.42 0.44 0.47 0.49 0.50 0.50 0.51 0.50 0.49 0.48 0.48 0.47 0.46 0.45 0.45 0.45 0.45 0.47 0.49 0.51 0.52 0.55 0.59 0.62 0.64 0.64 0.66 0.70 0.73 0.74 0.74 0.72 0.71 0.70 0.71 0.71 0.71 0.70 0.71 0.72 0.72 0.72 0.71 0.71 0.73 0.74
0.66 0.65 0.62 0.61 0.62 0.64 0.67 0.69 0.71 0.72 0.73 0.72 0.74 0.75 0.76 0.76 0.73 0.70 0.68 0.65 0.63 0.64 0.64 0.63 0.60 0.56 0.52 0.49 0.47 0.45 0.44 0.42 0.41 0.41 0.42 0.42 0.42 0.43 0.44 0.43 0.44 0.46 0.48 0.50 0.50 0.50 0.53 0.55 0.54 0.51 0.49 0.48 0.47 0.46 0.46 0.47 0.47 0.46 0.46 0.47 0.48 0.51 0.53 0.55 0.57 0.59 0.60 0.62 0.65 0.66 0.68 0.69 0.71 0.73 0.73 0.72 0.72 0.74 0.73 0.73 0.72 0.72 0.70 0.68 0.71 0.74 0.76
0.67 0.64 0.63 0.64 0.66 0.69 0.71 0.72 0.74 0.75 0.75 0.74 0.75 0.75 0.75 0.75 0.73 0.70 0.67 0.66 0.68 0.66 0.63 0.61 0.58 0.54 0.51 0.48 0.47 0.45 0.43 0.42 0.42 0.42 0.41 0.42 0.42 0.42 0.41 0.40 0.41 0.42 0.45 0.46 0.52 0.55 0.58 0.59 0.56 0.52 0.50 0.49 0.48 0.48 0.49 0.49 0.49 0.48 0.47 0.46 0.46 0.47 0.51 0.54 0.56 0.58 0.60 0.61 0.61 0.62 0.63 0.65 0.67 0.68 0.70 0.72 0.73 0.73 0.73 0.73 0.74 0.74 0.71 0.71 0.73 0.75 0.77
0.70 0.67 0.65 0.67 0.69 0.71 0.74 0.76 0.77 0.77 0.77 0.77 0.76 0.75 0.75 0.76 0.74 0.74 0.72 0.69 0.66 0.64 0.62 0.59 0.56 0.52 0.50 0.51 0.50 0.48 0.46 0.45 0.44 0.43 0.43 0.43 0.43 0.41 0.39 0.39 0.40 0.40 0.43 0.43 0.52 0.59 0.59 0.59 0.57 0.55 0.54 0.53 0.51 0.50 0.50 0.49 0.50 0.49 0.48 0.46 0.46 0.45 0.45 0.47 0.52 0.55 0.57 0.59 0.60 0.61 0.62 0.61 0.61 0.62 0.64 0.64 0.65 0.68 0.69 0.69 0.73 0.74 0.74 0.74 0.75 0.75 0.76
0.71 0.71 0.70 0.71 0.72 0.73 0.75 0.78 0.81 0.81 0.80 0.79 0.79 0.78 0.77 0.76 0.75 0.72 0.69 0.66 0.64 0.63 0.61 0.59 0.56 0.55 0.52 0.50 0.48 0.46 0.45 0.46 0.45 0.45 0.45 0.44 0.43 0.40 0.39 0.40 0.40 0.42 0.41 0.44 0.54 0.56 0.57 0.58 0.56 0.56 0.54 0.52 0.50 0.50 0.51 0.51 0.52 0.51 0.50 0.48 0.47 0.46 0.46 0.46 0.48 0.50 0.53 0.57 0.59 0.59 0.59 0.60 0.61 0.62 0.64 0.65 0.66 0.66 0.66 0.67 0.69 0.69 0.69 0.71 0.73 0.74 0.74
0.72 0.74 0.74 0.75 0.75 0.75 0.75 0.77 0.80 0.80 0.80 0.77 0.77 0.77 0.79 0.76 0.73 0.70 0.66 0.65 0.64 0.63 0.60 0.57 0.56 0.52 0.49 0.47 0.46 0.47 0.48 0.48 0.48 0.48 0.46 0.44 0.44 0.42 0.41 0.43 0.45 0.47 0.49 0.56 0.57 0.56 0.57 0.55 0.54 0.52 0.51 0.51 0.51 0.52 0.52 0.52 0.53 0.53 0.52 0.51 0.49 0.49 0.49 0.49 0.48 0.49 0.51 0.54 0.56 0.57 0.58 0.59 0.59 0.59 0.60 0.63 0.66 0.67 0.67 0.68 0.71 0.71 0.71 0.73 0.74 0.74 0.75
0.73 0.72 0.72 0.73 0.72 0.73 0.74 0.75 0.76 0.78 0.80 0.81 0.78 0.76 0.76 0.73 0.70 0.67 0.65 0.63 0.64 0.63 0.59 0.57 0.53 0.49 0.48 0.47 0.47 0.46 0.48 0.49 0.48 0.45 0.43 0.42 0.42 0.41 0.42 0.44 0.49 0.52 0.54 0.55 0.55 0.54 0.53 0.52 0.52 0.52 0.52 0.53 0.52 0.52 0.53 0.54 0.53 0.53 0.53 0.52 0.51 0.50 0.51 0.51 0.51 0.50 0.51 0.53 0.54 0.55 0.57 0.58 0.59 0.60 0.61 0.61 0.62 0.63 0.65 0.68 0.69 0.70 0.70 0.72 0.73 0.73 0.74
0.74 0.73 0.73 0.72 0.72 0.73 0.73 0.73 0.74 0.77 0.78 0.78 0.77 0.76 0.75 0.71 0.69 0.66 0.64 0.62 0.62 0.61 0.57 0.55 0.51 0.49 0.48 0.48 0.47 0.47 0.48 0.45 0.43 0.41 0.42 0.41 0.39 0.38 0.37 0.39 0.48 0.52 0.54 0.55 0.54 0.53 0.52 0.52 0.52 0.51 0.52 0.54 0.53 0.54 0.54 0.54 0.54 0.54 0.54 0.54 0.54 0.53 0.52 0.52 0.51 0.52 0.53 0.53 0.54 0.54 0.55 0.57 0.58 0.58 0.59 0.60 0.60 0.62 0.63 0.64 0.66 0.68 0.69 0.69 0.70 0.71 0.72
0.76 0.76 0.76 0.74 0.73 0.72 0.72 0.73 0.73 0.72 0.73 0.75 0.75 0.74 0.72 0.72 0.68 0.65 0.63 0.61 0.59 0.57 0.54 0.53 0.52 0.50 0.50 0.50 0.48 0.44 0.41 0.40 0.41 0.42 0.43 0.41 0.39 0.39 0.38 0.42 0.52 0.53 0.55 0.54 0.53 0.53 0.53 0.53 0.53 0.53 0.53 0.52 0.52 0.51 0.51 0.53 0.54 0.54 0.54 0.54 0.54 0.54 0.53 0.53 0.53 0.53 0.55 0.56 0.56 0.56 0.56 0.56 0.56 0.56 0.58 0.59 0.59 0.61 0.62 0.63 0.64 0.65 0.65 0.67 0.67 0.70 0.79
0.78 0.77 0.77 0.76 0.76 0.75 0.73 0.72 0.72 0.72 0.72 0.73 0.73 0.72 0.71 0.69 0.66 0.63 0.60 0.58 0.55 0.54 0.53 0.52 0.52 0.51 0.48 0.43 0.40 0.38 0.39 0.41 0.41 0.42 0.42 0.45 0.47 0.47 0.44 0.46 0.52 0.54 0.54 0.53 0.53 0.52 0.53 0.53 0.54 0.53 0.51 0.51 0.50 0.49 0.50 0.51 0.52 0.52 0.52 0.53 0.54 0.55 0.56 0.55 0.55 0.56 0.56 0.56 0.56 0.57 0.57 0.57 0.57 0.56 0.57 0.57 0.58 0.60 0.60 0.62 0.63 0.63 0.63 0.65 0.66 0.67 0.70
0.83 0.83 0.82 0.81 0.79 0.78 0.77 0.74 0.73 0.72 0.69 0.69 0.71 0.69 0.66 0.63 0.62 0.59 0.57 0.55 0.53 0.53 0.52 0.51 0.48 0.44 0.42 0.40 0.39 0.38 0.39 0.40 0.40 0.42 0.40 0.41 0.45 0.50 0.53 0.52 0.52 0.53 0.53 0.53 0.52 0.52 0.52 0.53 0.53 0.52 0.51 0.51 0.50 0.48 0.50 0.51 0.53 0.53 0.53 0.53 0.54 0.55 0.55 0.55 0.55 0.55 0.55 0.55 0.55 0.56 0.57 0.59 0.59 0.59 0.59 0.58 0.58 0.59 0.60 0.60 0.62 0.64 0.65 0.65 0.66 0.68 0.69
0.86 0.86 0.85 0.83 0.81 0.79 0.75 0.72 0.69 0.66 0.67 0.67 0.66 0.64 0.63 0.61 0.60 0.58 0.56 0.54 0.54 0.53 0.50 0.45 0.43 0.41 0.40 0.40 0.39 0.40 0.41 0.43 0.44 0.44 0.40 0.39 0.39 0.43 0.53 0.53 0.53 0.52 0.52 0.51 0.51 0.51 0.52 0.52 0.52 0.51 0.51 0.50 0.49 0.47 0.49 0.51 0.53 0.55 0.55 0.55 0.56 0.56 0.56 0.55 0.55 0.55 0.56 0.56 0.57 0.58 0.59 0.59 0.60 0.61 0.61 0.61 0.61 0.60 0.61 0.61 0.62 0.63 0.64 0.65 0.65 0.65 0.66
0.88 0.88 0.87 0.84 0.80 0.76 0.74 0.71 0.70 0.68 0.65 0.63 0.61 0.62 0.62 0.60 0.58 0.57 0.57 0.54 0.50 0.48 0.47 0.44 0.42 0.42 0.41 0.41 0.42 0.45 0.47 0.48 0.50 0.51 0.50 0.49 0.45 0.48 0.54 0.52 0.51 0.50 0.50 0.50 0.51 0.51 0.52 0.52 0.51 0.51 0.50 0.49 0.48 0.49 0.49 0.50 0.52 0.54 0.56 0.57 0.57 0.58 0.58 0.59 0.58 0.57 0.57 0.57 0.57 0.58 0.58 0.59 0.59 0.60 0.61 0.62 0.63 0.63 0.64 0.65 0.66 0.69 0.71 0.72 0.73 0.73 0.72
0.88 0.86 0.85 0.81 0.78 0.76 0.73 0.69 0.67 0.64 0.63 0.60 0.57 0.57 0.59 0.59 0.57 0.55 0.54 0.53 0.50 0.47 0.46 0.45 0.45 0.45 0.46 0.45 0.45 0.44 0.45 0.46 0.49 0.53 0.53 0.53 0.54 0.52 0.51 0.49 0.49 0.48 0.49 0.51 0.51 0.52 0.53 0.52 0.51 0.50 0.49 0.49 0.49 0.51 0.51 0.52 0.53 0.54 0.56 0.58 0.59 0.59 0.59 0.57 0.56 0.57 0.58 0.58 0.58 0.58 0.58 0.59 0.59 0.60 0.61 0.62 0.64 0.64 0.65 0.66 0.66 0.66 0.67 0.68 0.69 0.69 0.69
0.85 0.81 0.78 0.78 0.75 0.72 0.68 0.65 0.62 0.59 0.58 0.58 0.58 0.56 0.56 0.55 0.54 0.54 0.53 0.50 0.48 0.47 0.46 0.46 0.46 0.47 0.48 0.49 0.51 0.53 0.52 0.48 0.42 0.45 0.52 0.50 0.51 0.51 0.50 0.48 0.47 0.45 0.45 0.49 0.51 0.53 0.52 0.51 0.50 0.50 0.49 0.49 0.51 0.53 0.54 0.55 0.55 0.56 0.57 0.58 0.58 0.57 0.56 0.55 0.56 0.57 0.58 0.58 0.58 0.57 0.57 0.58 0.59 0.61 0.62 0.63 0.64 0.65 0.65 0.65 0.65 0.65 0.66 0.66 0.66 0.67 0.67
0.81 0.80 0.79 0.77 0.73 0.68 0.64 0.61 0.60 0.59 0.59 0.59 0.56 0.54 0.55 0.54 0.52 0.50 0.48 0.47 0.47 0.46 0.45 0.45 0.46 0.48 0.51 0.52 0.53 0.52 0.54 0.55 0.50 0.45 0.50 0.51 0.49 0.47 0.46 0.46 0.45 0.46 0.46 0.48 0.51 0.52 0.50 0.50 0.49 0.49 0.49 0.50 0.51 0.52 0.52 0.53 0.54 0.55 0.56 0.56 0.56 0.56 0.55 0.55 0.56 0.56 0.56 0.55 0.56 0.56 0.56 0.56 0.57 0.57 0.57 0.57 0.57 0.58 0.60 0.60 0.61 0.63 0.63 0.64 0.65 0.66 0.66
0.80 0.79 0.74 0.70 0.67 0.64 0.62 0.61 0.60 0.59 0.59 0.57 0.55 0.54 0.54 0.51 0.45 0.45 0.47 0.47 0.46 0.45 0.45 0.46 0.48 0.49 0.50 0.51 0.52 0.52 0.54 0.53 0.53 0.53 0.51 0.48 0.47 0.45 0.44 0.44 0.45 0.44 0.45 0.47 0.48 0.48 0.47 0.48 0.47 0.47 0.48 0.50 0.51 0.52 0.52 0.53 0.54 0.54 0.55 0.55 0.56 0.57 0.57 0.56 0.56 0.56 0.56 0.55 0.55 0.55 0.55 0.55 0.55 0.56 0.57 0.57 0.56 0.57 0.58 0.59 0.59 0.60 0.60 0.59 0.59 0.60 0.61
0.74 0.72 0.70 0.69 0.67 0.69 0.70 0.66 0.63 0.61 0.59 0.58 0.55 0.54 0.51 0.48 0.46 0.47 0.47 0.46 0.44 0.42 0.43 0.45 0.47 0.48 0.48 0.49 0.50 0.51 0.52 0.52 0.51 0.49 0.47 0.45 0.45 0.43 0.41 0.42 0.41 0.41 0.41 0.43 0.44 0.45 0.46 0.46 0.46 0.46 0.46 0.47 0.49 0.49 0.49 0.49 0.50 0.51 0.53 0.54 0.55 0.56 0.56 0.56 0.56 0.55 0.54 0.53 0.53 0.52 0.52 0.51 0.51 0.50 0.50 0.49 0.50 0.51 0.52 0.53 0.54 0.56 0.57 0.58 0.58 0.58 0.58
0.74 0.73 0.74 0.74 0.74 0.72 0.69 0.66 0.64 0.62 0.60 0.58 0.55 0.52 0.51 0.50 0.48 0.48 0.48 0.46 0.44 0.43 0.44 0.42 0.42 0.46 0.49 0.49 0.49 0.49 0.50 0.49 0.48 0.46 0.45 0.44 0.42 0.41 0.41 0.40 0.39 0.39 0.38 0.40 0.42 0.44 0.45 0.45 0.45 0.45 0.45 0.47 0.47 0.48 0.48 0.48 0.48 0.49 0.50 0.51 0.52 0.53 0.53 0.53 0.52 0.51 0.51 0.50 0.49 0.48 0.48 0.48 0.48 0.47 0.47 0.48 0.49 0.48 0.49 0.50 0.51 0.51 0.52 0.52 0.52 0.53 0.54
Wind_Speed
8 8 8 8 8 9 10 12 13 14 14 14 12 11 12 12 12 14 15 16 15 14 12 10 10 10 9 8 8 8 8 8 7 7 7 7 7 8 8 9 10 12 14 15 17 19 21 22 24 25 26 26 26 27 28 28 29 29 28 27 27 26 26 25 25 25 24 24 24 24 24 23 23 22 22 21 21 20 20 20 19 19 19 18 18 18 18
7 8 8 7 7 8 9 10 12 13 14 14 14 14 13 12 12 13 14 15 14 12 11 11 10 10 10 9 8 8 8 8 8 7 7 7 7 8 8 8 9 10 11 12 14 16 18 20 22 24 25 26 27 27 28 29 30 30 30 29 29 29 28 27 26 26 25 25 25 25 25 24 24 24 23 23 22 22 21 21 20 20 19 19 19 18 18
6 7 8 8 7 8 8 9 10 12 13 14 15 15 14 13 13 14 14 15 14 11 11 12 10 9 9 8 8 8 8 8 8 7 7 7 7 7 7 7 8 9 10 10 11 14 16 17 19 21 23 24 26 27 29 30 30 31 31 31 31 31 30 29 27 27 26 26 25 26 26 26 25 25 25 24 23 23 22 22 21 21 20 20 20 19 19
5 6 7 8 8 9 10 10 11 12 13 14 15 15 15 14 14 14 15 15 14 12 12 12 10 8 7 7 7 8 8 8 8 7 7 6 6 6 6 6 7 8 9 9 10 12 13 14 16 17 19 21 22 25 27 30 31 32 32 32 32 32 32 30 28 28 28 27 26 26 26 26 26 26 26 25 24 24 23 23 22 22 22 21 21 20 20
5 5 6 7 8 9 10 10 10 10 11 12 14 15 16 16 15 15 14 13 13 13 13 13 11 8 6 7 8 8 8 8 7 7 6 6 6 7 7 7 7 8 8 9 10 11 12 13 14 16 17 18 20 21 24 27 30 32 33 32 32 33 32 32 30 30 29 28 27 27 27 27 26 26 26 26 26 25 24 24 23 23 23 22 22 22 21
5 5 5 7 8 9 9 8 9 10 10 11 13 14 16 17 17 15 14 13 13 14 14 14 12 8 6 7 7 7 7 8 8 7 6 6 6 7 7 8 8 8 9 10 10 11 12 13 14 15 16 17 18 19 21 22 25 29 32 33 33 33 33 33 33 31 30 30 30 29 28 28 27 26 26 26 26 26 25 25 24 24 24 24 23 23 22
5 5 6 7 8 8 8 8 9 10 10 10 12 14 15 17 17 17 15 14 15 14 14 13 11 9 8 7 6 7 7 8 8 7 6 6 6 6 6 7 7 8 9 10 11 11 12 13 14 15 16 17 18 19 20 21 22 24 27 30 32 33 34 34 33 32 32 32 32 31 29 28 27 27 26 26 26 26 25 25 25 25 25 24 24 23 23
5 5 6 7 8 8 9 10 9 9 10 10 11 13 14 16 17 17 16 16 16 15 14 12 10 10 10 8 7 7 8 8 8 7 7 7 6 6 6 6 7 7 8 9 10 11 12 12 13 14 15 16 17 19 20 21 21 23 24 26 28 30 32 34 34 33 33 33 32 31 29 28 27 26 26 26 25 25 25 25 25 25 25 25 24 24 23
6 6 7 8 9 9 9 10 10 10 10 10 10 11 12 14 17 17 16 16 16 15 14 12 11 11 11 10 9 8 8 8 8 8 7 6 6 6 6 6 6 7 7 8 9 10 11 11 12 13 14 15 16 17 19 20 21 21 22 23 25 26 27 30 32 32 33 33 33 31 30 29 27 26 25 25 25 25 25 25 25 26 26 25 24 24 23
6 6 7 8 8 8 7 7 8 9 10 10 10 11 11 12 15 16 17 16 15 15 14 13 13 13 12 11 11 10 8 8 8 7 7 6 5 5 6 6 7 7 7 7 7 7 8 8 10 11 12 12 14 15 15 17 18 19 19 19 20 21 22 24 27 29 31 31 31 31 30 29 28 27 26 25 25 25 25 25 25 25 25 25 25 24 24
6 6 7 7 7 7 6 6 6 8 10 10 10 11 10 10 13 15 17 17 15 14 14 14 14 14 12 12 12 11 9 9 9 8 7 6 5 6 6 7 7 7 7 7 6 6 6 6 7 8 9 9 10 10 11 12 12 13 14 14 15 15 17 18 20 23 25 26 28 28 28 28 28 27 26 26 25 25 25 25 25 25 25 24 24 24 24
6 6 7 7 7 7 6 6 7 8 9 10 11 10 9 10 12 13 14 16 16 15 15 14 15 15 14 13 13 12 11 10 9 9 8 7 7 7 7 7 7 6 6 6 6 6 7 6 6 6 7 6 6 5 5 5 5 5 7 9 10 11 12 13 14 16 18 21 24 25 25 26 26 26 26 25 25 24 24 24 24 24 24 24 24 24 24
6 7 7 7 7 7 7 7 7 7 9 10 11 10 9 9 11 12 12 14 16 16 16 15 15 15 14 14 13 12 12 11 10 9 9 8 8 8 7 7 7 6 6 5 6 6 7 6 6 5 4 4 4 3 3 2 2 2 3 5 6 7 8 9 10 11 13 15 18 20 21 23 24 25 25 24 24 24 24 24 23 23 23 24 24 24 24
6 7 7 8 8 7 6 6 6 7 9 9 9 9 9 10 11 11 12 13 14 16 16 15 15 15 15 14 13 13 12 12 11 11 10 9 9 8 8 7 7 6 5 5 5 6 6 6 6 5 4 3 4 4 4 4 5 4 3 3 4 5 5 6 7 8 9 11 13 16 18 20 22 23 24 23 23 24 24 24 23 23 23 23 23 24 24
6 6 7 7 7 6 5 6 7 8 9 8 8 8 9 10 10 11 11 12 12 14 15 15 16 16 15 14 13 13 12 12 11 11 10 9 9 9 8 8 7 6 6 6 5 6 6 6 5 5 4 3 3 4 5 6 7 6 5 5 5 5 5 6 6 6 7 8 9 11 12 14 17 19 21 21 22 23 23 23 23 22 22 22 22 22 22
7 7 6 6 6 6 6 6 7 8 8 8 9 9 9 10 10 11 10 10 11 13 14 15 15 15 15 14 14 13 12 12 11 10 9 9 9 8 8 8 7 7 6 6 6 6 6 5 5 4 4 3 3 3 4 5 6 6 7 7 6 6 6 6 6 6 6 6 7 7 7 7 9 11 12 14 16 18 20 22 22 22 21 20 20 20 20
7 7 7 7 7 6 7 7 8 8 8 9 9 9 9 10 11 11 11 11 11 12 13 14 15 15 15 14 14 13 12 11 10 10 9 8 8 8 8 8 7 6 6 6 6 7 7 7 6 5 5 4 4 4 4 5 5 6 7 6 6 5 5 5 5 5 6 6 6 6 6 6 6 6 7 7 8 10 12 14 16 17 18 18 18 18 18
7 7 7 7 7 7 7 7 7 7 8 8 8 9 9 9 11 11 11 11 11 12 12 13 14 15 15 14 13 12 11 11 10 10 9 8 8 7 7 7 7 6 6 6 6 6 7 7 7 7 6 6 6 6 6 6 6 6 7 7 6 6 5 4 4 4 5 6 6 6 6 6 7 7 7 7 7 7 8 8 10 12 13 14 15 16 16
7 7 6 7 7 7 6 6 6 6 7 7 7 8 8 9 10 11 12 12 12 12 11 12 13 14 14 14 13 12 11 11 10 10 9 8 8 7 7 6 6 6 6 6 6 6 6 7 7 7 7 6 7 7 7 6 6 6 7 7 7 7 7 6 5 5 5 5 5 6 6 6 7 7 7 7 7 7 8 8 9 9 10 11 12 13 14
7 7 6 6 7 7 6 6 6 6 6 6 6 7 8 9 10 11 11 12 12 12 12 12 12 12 13 13 13 12 11 11 10 9 9 8 7 7 7 6 6 6 6 6 6 6 6 6 6 6 6 6 6 7 7 7 6 6 6 7 7 7 7 7 7 6 6 5 5 6 6 6 6 7 7 7 6 7 7 7 8 8 8 9 10 11 12
6 6 6 6 6 6 7 6 6 6 6 6 6 7 8 9 10 10 11 11 11 12 12 11 10 10 12 13 13 12 11 10 9 8 8 7 6 6 6 6 6 6 6 6 6 6 6 6 6 5 6 6 6 6 6 7 7 6 7 7 7 7 8 8 8 8 8 8 8 7 7 7 7 7 7 8 8 8 8 8 9 9 9 10 10 11 12
7 6 6 6 5 5 5 6 6 6 6 7 7 7 9 10 10 10 11 11 11 12 12 11 11 11 11 11 11 10 9 8 8 7 6 6 5 5 5 5 5 5 6 6 6 6 6 6 6 5 6 6 6 6 7 7 7 7 7 8 8 8 9 9 9 9 10 10 10 10 9 9 9 9 9 10 10 11 11 11 11 11 11 12 12 13 13
6 6 7 7 5 3 4 6 6 6 7 7 8 8 9 10 10 10 11 11 11 11 11 11 12 12 11 9 9 9 8 7 7 6 6 5 5 5 5 5 5 5 6 6 6 6 6 6 6 6 6 6 6 7 7 7 7 8 8 8 9 9 10 10 10 10 11 11 12 11 11 11 11 11 11 12 12 12 13 13 13 13 13 13 13 14 14
6 6 7 7 4 3 5 6 6 6 7 7 8 8 8 9 9 9 10 10 11 11 10 10 11 11 10 9 8 8 7 7 7 6 6 5 5 5 5 5 5 5 6 6 6 6 7 7 7 7 7 7 8 8 8 8 8 8 8 9 9 10 10 10 11 11 12 12 12 13 12 12 12 12 13 13 13 13 14 14 14 14 13 13 14 14 14
6 6 6 6 4 4 6 6 6 6 7 8 8 8 8 9 9 9 9 10 10 11 11 10 10 10 9 8 8 8 7 7 7 7 6 6 6 5 5 5 5 5 6 6 6 7 7 7 8 8 8 9 9 10 10 10 10 10 10 10 10 10 11 11 12 12 12 13 13 14 14 14 14 14 14 14 14 15 15 15 14 14 14 14 14 14 15
6 7 6 5 4 5 6 6 6 7 7 8 9 8 8 9 9 9 9 9 10 10 10 10 9 9 8 8 8 8 7 7 7 7 6 6 6 5 5 6 6 6 6 6 7 7 7 8 8 9 9 9 10 11 11 11 12 11 12 12 12 12 12 13 13 13 14 14 15 15 16 16 16 16 16 16 16 16 17 17 16 16 15 15 15 15 16
8 9 8 5 5 7 7 7 7 8 8 9 9 9 8 8 8 8 8 9 9 9 10 10 9 9 8 8 8 7 7 7 6 6 6 6 6 6 6 6 7 7 7 7 8 8 8 9 9 9 10 10 11 11 12 12 13 13 13 13 14 14 14 14 15 15 16 16 16 17 17 18 18 19 19 19 19 19 19 19 19 19 19 18 18 18 18
11 11 9 7 8 9 9 7 7 8 8 9 9 9 9 9 8 8 8 8 8 8 8 9 9 8 8 7 7 7 6 6 6 6 6 6 6 6 7 7 7 8 8 8 9 9 10 10 10 10 11 12 12 12 13 13 14 14 14 14 15 15 16 16 16 17 17 17 18 18 19 19 20 20 21 21 22 22 22 22 22 22 22 22 21 21 21
12 12 10 8 8 9 8 8 8 9 9 9 9 10 10 10 9 9 9 9 9 8 8 8 8 8 7 7 7 6 6 6 6 6 6 6 7 7 7 8 8 8 9 9 9 10 10 11 11 11 12 13 13 14 14 15 15 16 16 16 17 17 17 17 17 18 18 19 19 19 20 21 21 22 22 23 23 23 23 24 24 24 24 24 24 24 24
13 12 11 9 9 10 10 10 10 10 10 10 10 10 10 10 10 9 10 10 9 9 9 8 8 8 7 7 6 6 6 6 6 6 6 7 7 8 8 8 9 9 9 9 10 10 11 11 12 13 13 14 15 15 16 16 17 17 18 18 19 19 19 19 19 19 19 20 20 20 21 21 22 23 23 24 24 24 25 25 25 25 25 25 25 25 25
14 13 12 11 11 12 11 11 11 11 11 11 10 10 10 11 11 10 10 10 10 9 9 9 8 7 7 6 6 6 6 6 6 6 7 7 8 8 9 9 10 10 10 11 11 12 12 13 13 14 15 16 17 17 17 18 18 19 20 20 20 21 21 21 21 21 21 21 21 22 22 23 23 24 24 24 25 25 26 26 26 26 26 26 26 26 26
15 13 12 12 12 13 12 12 12 12 12 12 12 11 11 11 11 11 11 10 10 10 9 9 8 7 7 6 6 6 6 6 6 7 7 7 8 9 10 10 11 11 12 12 13 14 14 15 15 16 17 18 18 19 19 20 20 21 21 22 22 23 23 23 23 23 23 23 23 23 24 24 24 24 25 25 26 26 26 27 27 27 28 28 28 28 28
16 15 14 14 14 14 14 14 13 13 13 13 12 12 12 11 11 11 11 11 10 10 9 9 8 7 7 7 6 6 6 7 7 8 8 9 10 10 11 12 12 13 13 14 15 15 16 16 17 18 19 19 20 20 21 21 21 22 22 23 23 24 24 25 25 25 26 26 26 26 26 26 26 26 26 26 27 27 28 28 28 29 29 29 29 29 29
17 16 16 16 15 15 15 15 14 14 14 13 13 12 12 12 11 11 11 11 10 10 10 9 9 8 8 7 7 8 8 8 9 10 10 11 12 12 13 13 14 14 14 15 16 16 17 18 18 19 20 20 21 21 22 22 22 23 23 24 24 24 25 25 26 26 26 27 27 27 27 27 27 27 28 28 28 29 29 29 30 30 30 30 30 30 30
16 15 16 16 16 15 15 15 15 15 14 14 13 13 13 13 12 12 12 11 11 10 10 10 9 9 8 8 9 9 10 10 11 11 12 13 13 14 14 14 14 15 15 15 16 17 18 18 19 20 21 21 22 22 23 23 24 24 25 25 25 25 26 26 26 27 27 27 28 28 28 28 28 28 29 29 29 30 30 31 31 31 31 31 31 31 31
16 15 15 16 16 16 16 16 15 16 15 15 14 14 14 14 14 13 12 12 11 11 11 10 9 9 9 10 10 11 11 12 12 13 13 14 14 14 14 15 15 15 16 16 17 18 18 19 20 21 22 22 23 24 25 25 26 26 26 26 27 27 27 27 27 27 27 28 28 28 29 29 29 30 30 30 30 30 31 31 32 32 32 32 32 32 32
17 16 15 15 15 16 16 16 15 15 15 15 14 15 15 14 14 13 13 12 12 11 10 10 10 10 10 11 11 12 12 13 13 14 14 14 14 15 15 15 16 16 17 18 18 19 20 20 21 22 23 24 25 25 26 26 26 26 27 27 27 27 28 28 28 28 28 28 29 29 30 30 30 31 31 31 31 31 31 32 32 32 32 33 32 33 33
16 15 15 14 14 15 15 15 15 15 15 14 14 14 14 14 14 13 13 12 11 11 11 10 11 11 11 12 12 12 13 14 14 14 14 15 15 15 16 16 17 18 18 19 20 21 21 22 23 24 24 25 25 26 26 27 27 27 27 27 28 28 28 29 29 29 29 30 30 30 30 30 31 31 31 31 32 32 32 32 32 32 32 33 33 33 33
16 15 15 14 14 14 15 15 15 15 15 15 14 14 14 14 14 13 12 12 12 11 11 11 11 12 12 12 13 13 14 14 15 15 15 15 16 16 17 17 18 19 20 20 21 22 22 23 24 24 24 25 25 26 27 27 28 28 28 28 29 29 29 30 30 30 30 31 31 31 31 31 31 31 32 32 32 32 33 33 32 32 32 32 33 33 33
17 16 15 15 14 14 14 14 14 14 14 15 15 14 14 14 14 13 12 12 12 12 12 12 12 12 13 13 14 14 14 15 15 15 16 16 17 17 17 18 18 19 20 20 21 22 22 23 23 24 25 25 26 26 27 28 28 29 29 29 30 30 30 31 31 31 31 31 32 32 32 32 32 32 32 32 32 33 33 32 32 32 33 33 33 33 33
17 17 16 15 15 14 14 14 14 14 14 14 14 15 15 14 14 13 12 12 12 12 12 12 13 13 13 14 14 14 15 15 15 16 16 17 17 17 18 18 19 19 20 21 21 22 22 23 23 24 25 25 26 27 27 28 28 29 29 29 30 30 30 31 31 31 32 32 32 32 32 32 32 32 33 33 33 33 33 33 33 33 33 33 33 33 32
17 17 16 15 15 14 14 14 14 14 14 14 14 14 14 14 13 13 12 12 12 12 12 12 13 13 13 14 14 14 15 15 16 16 17 17 17 18 18 18 19 20 20 21 21 22 22 23 23 24 25 25 26 27 27 28 28 28 29 29 29 29 29 29 30 30 30 31 31 31 32 32 32 32 32 32 32 32 32 33 33 33 33 33 33 32 32
17 17 16 15 15 14 14 14 14 14 14 14 14 14 14 13 13 12 12 12 12 12 12 12 13 13 13 14 14 15 15 16 16 16 17 17 18 18 18 19 19 20 20 21 21 22 22 23 24 24 25 25 26 26 27 27 27 27 27 27 28 28 28 28 28 28 29 29 29 30 30 31 31 31 31 31 31 31 31 31 31 31 32 32 32 31 31
17 17 16 15 15 14 14 15 15 14 14 14 14 14 13 13 12 12 12 12 12 12 12 13 13 14 14 14 15 15 16 16 17 17 17 18 18 18 18 19 19 20 20 21 21 22 22 23 23 24 24 25 25 26 25 25 25 25 25 25 25 25 25 25 26 26 26 26 27 27 28 28 28 28 28 28 29 29 29 29 29 29 29 29 29 30 30
17 16 16 15 15 14 14 15 15 15 15 14 14 13 13 12 12 12 12 12 12 12 13 13 14 14 14 15 15 16 16 16 17 17 17 18 18 18 18 18 19 20 20 21 21 21 22 22 22 23 23 24 24 24 23 23 23 23 23 23 23 23 23 23 23 24 24 24 24 24 25 25 25 26 26 26 27 27 27 27 27 27 27 27 28 28 29
17 16 16 15 14 14 14 15 15 15 14 14 13 13 12 12 12 12 12 12 12 13 13 14 14 14 15 15 15 15 15 16 16 16 17 17 17 17 18 18 19 20 20 20 20 20 21 21 21 22 22 22 22 22 22 22 22 22 22 22 22 22 22 22 22 22 22 22 22 22 22 22 22 22 23 23 23 24 24 25 25 25 25 26 26 27 27
17 16 15 14 14 14 14 14 14 14 14 13 13 12 12 12 12 12 12 12 13 13 14 14 14 14 15 15 15 15 15 15 16 16 16 16 17 17 18 18 19 19 19 19 19 19 19 20 20 20 20 20 20 21 21 21 21 21 20 20 20 20 20 20 20 20 20 20 19 19 19 19 19 19 19 19 19 20 20 21 21 22 23 23 24 25 25
16 15 15 14 14 14 14 14 14 13 13 13 12 12 12 12 12 12 13 13 13 13 14 14 14 14 15 15 15 15 15 15 16 16 16 16 17 17 18 18 18 18 18 18 18 18 18 18 18 18 19 19 19 19 19 19 19 19 19 19 19 19 19 19 18 18 17 17 17 17 17 16 16 16 16 16 16 17 17 18 18 19 20 20 21 22 22
15 15 14 14 14 14 14 14 13 13 12 12 12 12 12 12 12 13 13 13 13 14 14 14 14 14 14 15 15 15 15 15 15 16 16 16 16 17 17 17 17 17 17 17 17 17 17 17 17 17 17 17 17 17 17 17 17 17 17 17 17 17 17 16 16 16 16 16 15 15 15 15 15 15 14 14 14 15 15 16 17 17 18 19 19 20 20
14 14 14 14 14 14 14 13 13 12 12 12 12 12 12 12 13 13 13 14 14 14 14 14 14 14 14 14 15 15 15 15 15 15 15 16 16 16 16 16 16 16 16 16 16 16 16 16 16 16 16 16 16 16 16 16 16 16 15 15 15 15 14 14 14 15 15 15 15 15 14 14 14 13 13 13 13 14 14 15 16 16 17 18 18 19 19
14 14 13 13 13 13 13 13 12 12 12 12 12 12 13 13 13 13 14 14 14 14 14 14 14 14 14 14 14 14 14 14 15 15 15 15 15 15 15 15 15 15 15 15 15 15 15 14 14 15 15 15 15 15 15 15 15 15 15 14 14 14 13 13 13 14 14 14 14 14 13 13 12 12 12 12 12 12 13 14 15 15 15 16 16 17 17
13 13 13 12 12 12 12 12 12 12 12 12 12 13 13 13 13 13 14 14 14 14 14 14 14 14 14 14 14 14 14 14 14 14 14 14 14 14 14 14 15 15 15 14 14 14 14 14 14 14 14 14 15 15 15 15 15 15 15 14 14 13 13 13 13 13 13 13 13 13 12 12 12 11 11 11 11 11 12 13 13 13 13 13 13 13 14
Wind_Direction
262 252 256 258 249 246 246 246 244 241 237 234 236 236 231 230 229 227 228 226 224 227 232 238 243 234 222 218 218 218 218 215 211 209 206 204 206 207 206 206 208 212 216 219 221 223 224 225 227 229 230 231 231 230 229 230 232 232 232 231 231 231 230 229 229 229 230 231 232 231 231 230 231 230 230 231 232 232 233 234 235 235 236 236 237 238 239
257 247 255 256 251 250 252 252 248 244 241 234 229 229 229 230 231 228 227 229 226 222 225 233 241 238 228 219 213 214 216 215 212 209 208 208 209 212 215 215 218 222 223 225 226 226 227 229 230 232 233 234 234 233 231 232 232 233 233 234 233 233 232 231 230 231 231 232 233 232 231 231 231 231 231 232 233 233 234 234 235 235 236 236 237 238 239
259 252 254 252 253 255 255 255 250 243 241 236 229 227 228 233 234 229 229 230 224 218 224 230 238 243 230 214 213 217 215 212 211 208 210 213 213 216 221 224 227 229 230 231 231 230 231 233 234 235 237 238 238 237 236 235 234 234 234 235 234 234 234 233 232 232 232 232 233 233 233 232 232 231 232 233 233 234 234 235 236 236 237 237 237 238 239
268 262 258 253 258 261 256 253 249 243 241 238 233 229 229 234 236 231 231 232 225 219 222 222 229 243 233 212 216 223 216 211 208 207 213 219 220 223 229 233 235 235 235 236 237 236 236 237 238 239 240 240 241 241 240 238 236 235 235 235 235 234 234 234 233 233 232 233 233 233 233 233 233 232 232 233 233 234 234 235 236 237 238 238 239 239 240
282 274 263 257 261 263 258 253 249 245 243 240 235 231 229 231 234 233 234 234 227 222 223 222 225 236 229 213 215 218 216 213 209 210 220 228 230 232 237 243 244 242 243 245 245 245 243 243 244 245 245 245 245 245 243 240 237 236 236 236 236 234 234 234 233 233 234 234 234 234 233 233 233 233 232 233 234 234 235 236 237 237 238 239 239 240 241
288 277 267 261 261 261 259 256 253 248 245 241 236 234 230 228 231 235 238 238 229 223 223 227 228 228 225 221 215 211 215 215 208 208 218 229 236 239 243 249 251 250 251 252 252 252 251 250 251 251 251 250 249 248 246 244 241 238 238 239 239 237 236 235 234 233 234 234 233 234 234 233 233 233 234 234 235 236 237 237 237 238 238 239 240 241 242
288 277 267 262 262 264 265 265 260 251 246 243 241 239 233 227 229 234 236 236 231 225 224 227 228 226 224 222 217 216 221 221 215 214 220 231 241 248 250 253 259 260 259 258 258 258 257 257 257 257 256 255 252 249 246 245 244 242 241 241 241 240 238 237 235 234 235 235 234 233 234 234 233 234 234 235 236 237 238 238 238 239 239 239 240 241 242
288 275 263 265 275 277 270 265 260 250 243 242 243 240 232 225 226 229 230 231 230 229 229 228 230 233 227 220 224 230 230 229 227 225 228 235 244 254 259 261 266 270 269 266 264 262 262 263 263 263 261 259 256 252 248 247 246 245 243 242 242 242 240 238 237 236 236 236 235 235 235 236 235 235 235 235 235 236 237 238 239 239 239 239 239 240 241
287 280 268 272 281 279 267 260 254 246 242 240 238 240 234 226 223 223 224 225 226 229 231 228 231 237 228 219 227 238 236 232 228 223 226 232 240 254 264 267 272 276 277 276 273 269 266 266 266 267 266 263 259 255 251 249 247 245 244 243 243 243 242 239 237 237 237 237 236 236 238 238 237 237 237 237 237 237 238 239 239 238 238 238 239 240 241
281 284 280 278 278 277 270 261 252 245 241 234 230 237 239 229 223 222 222 222 223 227 229 226 226 231 226 221 228 237 238 232 225 223 226 231 240 253 263 270 276 280 283 284 282 278 276 274 272 270 270 266 260 255 253 251 248 245 244 243 244 244 242 240 238 237 237 236 235 235 237 237 237 238 239 239 239 239 239 240 240 239 237 237 239 240 240
269 275 283 280 273 276 274 263 254 246 239 231 231 240 242 231 226 226 224 222 222 225 228 226 224 226 226 224 227 229 228 225 225 228 233 237 245 254 262 271 279 282 283 285 287 291 294 294 286 277 273 271 264 257 255 251 246 245 245 242 241 242 241 241 238 235 234 233 232 234 236 237 238 239 240 239 238 239 241 241 240 239 237 237 238 238 239
263 268 281 283 276 276 274 265 258 247 237 232 235 241 240 229 227 227 224 222 220 220 222 225 225 225 225 224 226 225 223 224 229 234 239 243 248 254 262 271 278 281 283 287 294 301 303 305 302 290 280 279 273 261 256 247 238 245 247 242 240 239 237 238 236 235 234 233 234 236 237 237 239 239 239 239 238 240 241 240 239 239 238 237 237 238 240
262 265 275 284 282 276 269 265 261 247 235 233 236 239 236 229 227 226 223 222 220 219 221 224 224 222 220 222 226 227 225 228 234 240 243 245 247 252 261 271 277 280 284 289 294 297 298 300 305 302 291 280 263 247 245 243 246 261 252 238 237 236 234 235 237 238 239 236 235 236 237 238 239 239 239 240 240 240 241 240 240 240 238 238 238 240 242
266 268 273 284 287 279 269 263 255 244 238 237 237 236 231 227 227 226 221 218 219 220 221 220 217 216 216 220 225 226 227 230 235 239 242 244 246 251 259 268 273 274 277 283 288 290 291 291 292 292 288 274 255 250 256 262 267 273 264 240 233 233 234 239 241 241 241 238 236 237 239 240 240 240 241 242 242 242 242 241 239 238 237 238 239 241 244
267 268 269 280 286 281 270 258 246 242 244 242 235 230 226 224 225 225 220 216 216 215 214 212 211 212 216 220 221 223 227 231 235 238 240 241 245 251 257 264 270 271 271 275 281 284 284 282 280 280 279 270 259 259 264 266 267 268 263 251 244 246 249 249 248 247 245 241 239 240 242 242 240 239 242 244 244 243 241 239 237 237 239 240 240 241 243
262 264 266 277 287 285 274 263 254 249 247 240 230 224 222 220 221 220 214 209 208 204 203 206 210 210 213 216 217 219 224 228 231 234 237 239 242 247 253 260 267 269 267 269 274 278 278 275 273 274 275 272 270 267 266 265 263 260 257 253 252 258 261 257 254 251 247 243 239 236 237 239 237 235 236 240 242 241 239 238 237 239 240 240 240 240 241
264 272 275 280 283 282 275 268 262 254 244 235 229 225 221 218 216 213 206 202 200 196 195 202 209 209 208 208 211 215 219 223 225 227 230 233 235 240 248 256 262 265 263 263 267 272 274 272 269 270 271 273 275 271 262 258 254 250 249 249 249 254 256 254 253 250 245 243 241 239 239 244 243 234 226 229 235 236 235 234 233 234 235 236 237 238 239
266 274 275 276 278 280 278 269 258 248 237 230 226 221 216 213 210 206 200 195 193 192 192 197 204 208 206 204 205 208 210 213 217 219 222 227 230 235 243 250 253 254 255 258 262 268 271 271 268 268 270 272 271 267 262 257 251 247 245 244 244 246 244 242 246 249 245 242 244 246 245 244 244 239 233 233 236 234 230 227 225 226 230 233 235 237 240
262 267 268 271 274 276 277 269 252 238 230 225 222 215 207 204 202 201 197 192 190 191 192 194 199 205 205 202 200 203 205 206 209 213 217 222 229 235 240 244 245 244 245 251 258 265 270 272 269 268 270 271 269 266 264 261 254 249 246 242 241 241 242 241 242 242 238 235 239 245 245 240 238 236 234 234 233 230 228 227 226 226 228 232 234 236 239
263 271 271 274 276 273 269 262 245 228 217 211 212 209 200 194 194 194 195 195 193 192 193 195 198 204 207 203 199 200 203 204 206 211 215 221 229 235 239 241 242 242 243 248 254 261 267 269 270 270 270 271 269 266 266 266 261 255 251 247 244 243 243 241 238 237 237 239 244 251 254 249 241 237 235 233 227 223 223 225 228 230 231 232 236 239 240
260 269 264 263 271 268 258 250 238 222 209 199 197 197 192 188 186 187 191 195 194 189 188 190 189 192 200 201 196 195 198 202 205 211 217 225 232 238 241 242 241 241 244 247 251 257 263 265 267 269 271 272 273 271 270 270 268 263 259 257 257 256 253 247 242 241 245 250 255 258 259 254 248 247 246 242 237 234 235 238 242 244 243 243 245 247 246
252 254 239 235 255 261 242 231 220 209 201 193 187 186 185 182 180 181 185 189 190 187 186 186 182 182 189 193 189 187 192 198 202 209 217 225 232 236 239 241 242 243 245 248 249 253 257 261 264 267 268 269 272 273 272 271 270 268 264 260 260 262 260 257 253 251 252 256 260 262 261 257 255 255 254 253 252 251 251 254 257 258 257 256 256 256 253
253 245 220 219 246 253 215 205 202 197 194 187 180 180 180 178 178 179 180 183 187 188 189 188 185 185 190 191 184 183 189 195 199 206 213 217 222 228 234 239 247 252 255 257 257 257 258 261 264 266 266 266 268 271 272 270 269 268 265 261 259 259 259 259 259 257 256 257 261 264 264 261 259 259 259 260 260 259 257 259 261 262 261 260 259 258 257
248 233 212 215 241 230 194 190 191 191 190 182 173 174 177 178 179 181 181 182 184 186 188 191 190 190 193 195 192 189 193 199 202 205 209 213 215 222 231 239 249 257 261 263 264 264 264 266 267 268 267 266 266 268 269 270 268 267 266 263 260 258 257 257 257 256 255 255 256 259 260 260 259 258 257 258 259 259 258 258 259 259 259 258 258 258 258
234 218 207 215 224 199 183 186 188 190 190 182 174 175 179 181 182 182 179 179 180 181 182 186 190 190 190 193 194 193 197 204 207 208 212 217 220 226 235 245 253 259 262 264 265 266 268 269 270 271 270 269 268 268 269 270 270 269 268 267 265 263 261 259 258 257 256 254 254 254 255 257 257 256 255 254 254 255 256 257 256 256 257 257 257 258 259
217 198 190 196 198 184 179 182 186 190 191 185 180 180 181 180 180 179 176 175 175 176 175 176 180 183 183 183 185 188 192 199 206 211 217 224 231 239 247 256 262 266 266 266 268 270 271 273 274 274 275 274 273 271 271 272 273 273 272 271 270 269 267 266 264 262 260 258 257 256 256 257 257 257 257 256 254 254 255 256 257 257 258 259 260 261 262
205 192 184 181 187 191 191 189 186 187 189 187 184 182 180 178 176 174 172 171 171 172 172 173 174 176 179 180 183 186 191 196 205 215 224 232 240 248 254 260 266 270 271 272 273 273 275 276 276 278 279 279 278 277 275 275 275 275 275 274 273 272 272 271 269 268 266 263 262 261 260 260 260 259 259 259 259 259 259 259 259 260 261 262 263 264 265
206 201 198 198 197 197 197 193 186 183 186 188 185 183 183 182 179 175 173 172 171 171 172 173 174 175 178 183 185 189 195 202 210 219 229 237 245 252 257 263 268 271 273 274 275 277 278 278 279 281 283 282 282 281 280 280 279 278 278 277 276 274 274 273 272 271 270 268 266 265 264 264 264 263 262 261 262 262 263 263 263 263 264 264 265 265 266
208 208 212 213 203 194 192 191 187 183 185 186 184 183 185 185 183 182 181 179 177 176 176 178 178 177 180 184 188 195 203 211 218 227 236 244 251 258 262 265 267 270 271 274 276 277 279 280 281 282 283 284 284 284 283 282 281 281 280 279 278 277 276 276 274 273 271 270 269 268 268 267 267 266 265 264 264 263 264 265 265 265 266 266 266 267 267
209 209 213 212 201 193 191 192 189 186 186 185 184 184 185 184 184 185 185 183 182 181 181 183 183 183 186 192 198 206 216 223 230 239 247 254 260 265 267 268 269 271 272 273 275 277 278 279 281 282 283 284 284 284 283 283 282 281 280 280 279 278 277 276 276 274 273 271 270 270 270 270 269 268 267 266 265 264 264 265 265 266 266 267 267 268 269
206 209 211 209 203 198 196 194 191 190 189 187 185 184 184 182 181 182 184 184 185 184 185 187 188 191 197 203 209 218 226 233 241 248 254 260 266 270 272 273 273 273 273 274 275 277 278 279 280 281 282 283 283 283 283 283 282 281 280 279 279 277 276 276 275 274 273 272 271 270 270 270 270 270 269 267 266 265 265 265 265 266 266 267 268 269 269
203 207 210 209 206 204 201 198 195 193 192 191 190 188 187 186 184 185 187 190 191 191 193 195 198 203 208 214 221 230 238 245 251 257 262 267 272 275 278 278 277 276 277 277 278 279 281 281 282 283 284 284 285 284 284 283 282 281 280 279 278 277 277 276 275 274 274 272 271 270 270 270 269 269 269 268 267 266 265 265 265 265 266 266 267 268 269
204 206 209 209 207 207 206 204 201 198 197 198 197 196 196 195 193 192 195 197 199 200 203 206 209 214 219 225 233 241 247 252 258 263 267 272 275 278 279 280 280 279 279 280 281 282 283 284 284 285 285 286 286 286 286 285 284 283 281 281 280 279 278 277 276 275 274 273 272 271 271 270 270 269 268 268 267 267 266 265 265 265 265 266 266 267 267
211 212 212 211 209 208 207 206 205 203 203 204 204 203 202 202 201 201 202 204 206 209 212 215 219 223 229 236 244 248 252 257 262 266 270 274 276 277 278 279 280 280 281 282 283 284 284 285 286 286 287 287 288 288 288 287 286 285 284 283 282 281 280 279 278 277 276 275 274 273 272 271 270 270 269 269 268 267 267 266 266 266 265 265 265 265 266
216 217 216 214 211 208 205 204 205 206 206 207 208 208 208 208 207 207 208 210 212 215 217 221 226 232 238 246 251 255 258 262 266 270 274 276 277 278 278 279 280 281 283 284 285 285 286 287 288 288 288 289 289 289 289 289 288 287 286 285 283 282 282 281 280 279 277 276 275 274 273 272 272 271 271 270 269 268 268 267 266 266 266 265 265 264 265
215 216 216 215 214 210 207 206 207 207 207 208 208 209 210 211 211 211 212 214 216 218 221 226 233 240 247 253 257 261 263 267 271 274 277 278 279 279 280 280 281 282 282 284 285 286 286 287 289 289 289 289 289 289 290 289 288 287 286 285 284 283 282 281 280 280 279 278 277 275 274 274 273 272 271 271 270 270 269 268 267 267 266 265 264 264 264
213 213 213 214 213 211 211 211 211 210 210 210 210 210 211 212 212 213 214 216 219 222 227 234 241 248 254 258 262 264 267 271 274 276 278 279 280 280 281 281 282 282 282 283 285 286 287 288 290 290 290 290 290 290 290 290 289 287 286 285 284 283 282 281 280 279 279 278 277 276 276 275 273 272 271 270 270 270 270 269 268 267 266 265 265 264 263
210 210 210 211 210 209 210 212 212 211 211 211 212 212 212 211 212 213 215 218 223 228 234 241 247 252 257 262 265 269 271 274 276 278 279 279 280 280 281 282 283 284 284 285 286 287 288 290 290 290 290 290 290 290 290 290 289 287 286 285 284 284 283 282 280 280 279 278 278 277 276 275 274 273 272 271 271 270 270 269 268 267 266 266 265 264 264
208 209 208 208 208 209 209 210 212 212 211 209 211 212 211 210 211 213 217 222 228 234 240 245 251 256 261 266 269 272 274 275 277 278 279 280 280 281 282 284 285 286 286 287 287 288 289 290 291 290 290 291 291 290 290 290 289 288 287 286 285 284 283 283 282 281 280 279 278 278 277 276 275 274 273 272 272 271 270 269 268 267 266 266 265 265 264
208 207 206 205 207 209 210 211 213 214 213 210 209 209 210 210 212 216 221 227 233 239 245 250 256 261 265 268 271 273 275 276 278 279 280 281 282 282 283 285 287 288 289 289 290 290 291 292 292 292 292 292 292 292 292 292 291 290 288 287 286 285 284 283 282 281 280 280 279 278 277 277 275 274 274 273 272 271 270 269 268 267 266 266 265 264 263
206 206 205 205 207 209 211 211 212 213 213 211 209 208 209 211 214 220 226 232 238 245 250 256 261 265 268 271 273 274 276 277 279 280 281 282 284 284 285 287 289 291 291 292 293 293 294 294 294 294 294 294 295 295 294 294 293 292 290 289 287 286 284 283 282 281 281 280 279 278 278 277 276 275 274 273 272 271 270 269 268 267 266 266 265 264 262
204 203 203 205 207 209 210 210 210 209 209 209 208 208 210 213 218 224 230 236 242 249 255 261 265 269 271 273 275 277 278 280 281 282 284 285 286 287 288 289 291 292 294 294 294 295 295 295 296 296 296 296 296 296 296 295 293 292 291 290 288 287 285 284 283 282 281 280 280 279 278 277 276 275 275 274 273 271 270 269 268 267 266 266 264 262 261
203 202 203 205 207 208 210 210 209 207 208 209 210 210 213 218 223 228 234 240 246 254 260 266 271 274 275 276 278 279 281 282 283 284 286 287 288 289 290 290 291 293 294 295 295 295 296 296 297 298 298 298 298 298 297 296 294 294 292 291 290 289 288 286 285 284 283 282 281 280 279 278 277 276 275 274 272 271 270 269 268 267 266 265 263 260 260
202 203 204 205 206 207 209 210 209 209 209 211 212 214 218 222 226 232 239 246 253 260 267 272 275 276 277 279 281 282 283 284 285 285 286 287 288 289 290 291 292 294 295 296 296 297 297 298 299 300 300 301 300 299 298 297 296 296 295 294 293 291 290 289 288 286 285 284 283 282 281 279 278 277 275 274 273 272 271 269 268 266 264 263 261 260 260
201 202 203 202 204 207 209 210 209 209 210 211 213 217 221 226 232 239 246 253 260 267 271 275 276 277 279 281 283 284 285 285 285 286 286 286 287 288 290 292 294 295 297 297 298 298 299 300 301 302 302 302 302 301 300 298 298 298 297 296 295 294 293 292 291 290 288 287 286 284 283 282 280 278 276 274 273 272 270 268 266 265 264 263 262 261 261
199 201 201 202 204 207 208 208 207 207 209 212 217 223 227 233 240 248 254 260 266 270 274 276 277 279 280 282 283 284 285 286 286 286 287 288 288 290 292 294 295 297 298 298 299 300 301 302 303 303 304 304 304 303 302 301 299 298 298 297 296 296 295 294 293 292 291 290 288 287 286 285 284 282 280 277 274 272 270 268 267 266 264 264 263 263 262
198 199 202 203 204 204 204 204 205 208 213 219 225 230 235 240 247 254 260 265 269 273 276 278 279 280 281 282 282 283 284 284 285 287 288 289 290 291 293 295 297 298 298 299 300 301 302 303 304 305 306 307 307 307 306 305 303 301 300 298 297 296 295 294 294 294 293 292 291 290 289 287 286 284 282 279 276 274 271 270 268 267 266 265 264 264 264
197 198 200 202 202 202 203 206 210 215 221 226 231 236 241 246 252 258 263 267 270 274 277 279 280 281 281 282 282 283 283 284 286 287 289 290 291 293 294 296 298 299 299 299 300 301 303 304 306 307 309 309 310 311 311 310 308 306 304 302 300 298 297 295 295 294 294 293 292 291 290 289 287 285 283 281 279 277 275 273 272 270 269 268 267 266 265
196 197 199 201 203 205 208 213 218 223 227 232 238 243 247 251 257 261 265 269 273 276 278 279 280 281 282 283 284 284 285 286 288 289 289 290 292 294 295 297 298 299 300 299 299 300 303 305 307 309 310 311 313 314 314 314 313 311 308 306 304 302 300 298 297 296 296 296 294 293 292 291 290 289 288 287 285 283 280 278 277 275 273 271 269 268 267
197 199 202 205 208 211 214 220 225 229 233 239 244 247 250 255 261 265 268 271 274 276 278 279 280 281 283 284 285 285 286 287 289 290 290 291 293 294 296 297 298 299 299 298 299 301 303 305 307 309 312 314 316 317 318 318 317 314 312 310 308 306 304 302 301 300 300 299 297 294 293 291 291 290 289 288 287 285 284 283 282 281 279 276 274 271 269
200 203 207 210 213 216 220 225 229 233 238 243 246 249 253 259 264 267 269 272 274 276 276 278 280 281 283 284 285 286 287 288 290 290 290 292 293 295 296 297 298 298 298 298 299 301 303 303 305 309 313 316 318 320 321 321 319 317 315 313 311 309 307 306 305 305 304 302 299 295 292 291 291 291 290 289 290 290 289 288 288 286 284 281 278 275 272
203 206 210 214 218 223 227 231 234 237 241 246 249 252 257 262 265 267 270 272 274 275 275 277 279 280 282 283 285 286 287 289 289 290 290 292 294 295 296 297 297 297 298 299 300 301 302 302 304 308 312 315 318 320 322 322 321 319 317 316 313 310 309 309 309 309 309 307 302 297 293 291 291 292 292 292 293 295 295 295 293 290 287 283 280 278 276